Regional Weather Roundup
Issued by NWS

Home | Current Version | Previous Version | Text Only | Print | Product List | Glossary On
Versions: 1 2 3 4 5 6 7 8 9 10 11 12 13 14 15 16 17 18 19 20 21 22 23 24 25 26 27 28 29 30 31 32 33 34 35 36 37 38 39 40 41 42 43 44 45 46 47 48 49 50
000
ASUS43 KDTX 260210
RWRMI
MICHIGAN HOURLY REGIONAL WEATHER ROUNDUP
NATIONAL WEATHER SERVICE DETROIT/PONTIAC MI
1000 PM EDT MON JUL 25 2016

NOTE: "FAIR" INDICATES FEW OR NO CLOUDS BELOW 12,000 FEET WITH NO
SIGNIFICANT WEATHER AND/OR OBSTRUCTION TO VISIBILITY.

MIZ047>049-052>055-059>063-066>070-074>076-081>083-260300-
SOUTHEAST LOWER MICHIGAN

CITY           SKY/WX    TMP DP  RH WIND       PRES   REMARKS
ADRIAN         CLEAR     76  65  68 NW7       29.99R
ALMA           CLEAR     73  63  71 W9        30.00R
ANN ARBOR      CLEAR     78  64  61 NW3       29.98R
BAD AXE        CLEAR     69  62  78 CALM      29.97R
CARO           CLEAR     75  61  61 NW5       29.97R
DETROIT CITY   CLEAR     82  62  50 NW5       29.96R
DETROIT        PTCLDY    81  63  54 NW6       29.97R
FLINT          CLEAR     79  59  50 NW7       29.98R
GROSSE ILE     CLEAR     80  64  58 CALM      29.95R
HILLSDALE      CLEAR     72  64  74 NW7       30.01R
HOWELL         CLEAR     75  59  57 NW5       29.99R

CITY           SKY/WX    TMP DP  RH WIND       PRES   REMARKS
JACKSON        CLEAR     73  65  75 NW7       30.00R
LAMBERTVILLE   CLEAR     77  69  76 CALM      29.98R
LANSING        CLEAR     74  59  59 W6        30.00R
LAPEER         FAIR      75  60  60 NW6       29.97R
MASON          CLEAR     75  62  62 W7        30.00R
MONROE         CLEAR     73  69  87 CALM      29.95R
MT. CLEMENS    PTCLDY    78  65  64 NW3       29.94R
PONTIAC        CLEAR     78  61  55 W8        29.97R
PORT HURON     CLEAR     72  63  73 CALM      29.96R
TRI CITIES     CLEAR     76  62  62 W8        29.98R
MIDLAND        FAIR      70  61  73 CALM      29.98R
TROY           CLEAR     83  58  43 W5        29.99R
SAGINAW HB     CLEAR     73  59  60 NW3       29.97R
$$
MIZ043>046-050>051-056>058-064>065-071>073-077>080-260300-
SOUTHWEST LOWER MICHIGAN

CITY           SKY/WX    TMP DP  RH WIND       PRES   REMARKS
BATTLE CREEK   CLEAR     69  63  81 NW7       30.02R
BENTON HARBOR  CLEAR     71  64  78 CALM      30.00S
BIG RAPIDS     CLEAR     70  66  86 W5        30.01R
COLDWATER      CLEAR     72  64  75 NW3       30.01R
FREMONT        FAIR      71  69  95 W3        30.00S
HOLLAND        CLEAR     71  66  84 SW3       30.02R
GRAND RAPIDS   PTCLDY    76  62  62 W8        30.01R
IONIA          FAIR      74  58  55 NW5       30.00R
KALAMAZOO      CLEAR     73  62  68 NW5       30.01S
LUDINGTON      CLEAR     71  68  90 SW3       29.99R
MARSHALL       CLEAR     72  63  73 CALM      30.00R
MOUNT PLEASANT CLEAR     74  61  63 W5        29.99R
MUSKEGON       PTCLDY    71  67  87 CALM      30.01R
SOUTH HAVEN    CLEAR     68  66  94 CALM      30.01R
$$
MIZ016>042-260300-
NORTHERN LOWER MICHIGAN

CITY           SKY/WX    TMP DP  RH WIND       PRES   REMARKS
ALPENA         CLEAR     70  57  63 NW3       29.97R
BEAVER ISLAND  CLEAR     63  60  90 CALM      29.97R
BELLAIRE       CLEAR     65  60  85 CALM      29.97S
CADILLAC       CLEAR     67  58  73 CALM      30.01R
CHARLEVOIX     CLEAR     66  60  80 CALM      30.00S
FRANKFORT      CLEAR     67  63  86 CALM      29.98R
GAYLORD        CLEAR     69  56  62 NW3       30.00S
GRAYLING       CLEAR     66  59  79 CALM      30.00R
HARBOR SPRINGS CLEAR     66  58  74 CALM      29.97R
HOUGHTON LAKE  CLEAR     70  59  68 N3        30.00R
MANISTEE       CLEAR     69  64  84 CALM      29.98R
OSCODA         CLEAR     72  57  60 NW6       29.95R
ROGERS CITY    CLEAR     67  57  72 W3        29.97R
TRAVERSE CITY  CLEAR     72  62  71 CALM      29.96R
$$
MIZ007>008-015-260300-
EASTERN UPPER MICHIGAN

CITY           SKY/WX    TMP DP  RH WIND       PRES   REMARKS
KINROSS        CLEAR     66  58  75 W5        29.95
MACKINAC ISLAN CLEAR     68  57  68 W7        29.96R
NEWBERRY       CLEAR     64  61  88 SW5       29.96R
S. S. MARIE    CLEAR     67  59  75 NW3       29.94R
MUNISING         N/A     66  62  87 S5        29.95
$$
MIZ004>006-011>014-085-260300-
CENTRAL UPPER MICHIGAN

CITY           SKY/WX    TMP DP  RH WIND       PRES   REMARKS
MANISTIQUE     CLEAR     63  60  90 N5        29.96S
ESCANABA       CLEAR     72  61  68 CALM      29.96R
MENOMINEE      CLEAR    N/A N/A N/A CALM      29.97R
SAWYER-GWINN   CLEAR     72  55  56 W5        29.99S
$$
MIZ001>003-009>011-084-260300-
WESTERN UPPER MICHIGAN

CITY           SKY/WX    TMP DP  RH WIND       PRES   REMARKS
IRON MOUNTAIN  CLEAR     67  58  72 CALM      29.98R
HOUGHTON       CLEAR     70  58  65 W8        29.95R
COPPER HARBOR    N/A     73  57  57 NW5       29.92R
IRONWOOD       CLEAR     70  64  83 CALM      29.97S
$$

ABBREVIATIONS USED IN REMARKS
   TC - TEMPERATURE IN CELSIUS
  WCI - WIND CHILL INDEX
   HX - HEAT INDEX
  VSB - VISIBILITY





USA.gov is the U.S. government's official web portal to all federal, state and local government web resources and services.